User: anonymous   Login
Location: Sandbanks Provincial Park
(47.6073°N, 57.6428°W)
Time: 17:14:36
(UTC-02:-30)
Language:

Cosmos 2034 Rocket - Orbit

View from above orbital plane
View from above orbital plane
View from above satellite
View from above satellite

Ground track
Ground track

The orbit data is extracted from the following two-line orbital elements,

1 20150U 89059B   16120.23128769  .00000066  00000-0  52242-4 0  9998
2 20150  82.9427  41.1831 0029087   1.2620 152.4273 13.75620921343478
Epoch (UTC): 29 April 2016 05:33:03
Eccentricity: 0.0029087
inclination: 82.9427°
perigee height: 958 km
apogee height: 1001 km
right ascension of ascending node: 41.1831°
argument of perigee: 1.2620°
revolutions per day: 13.75620921
mean anomaly at epoch: 152.4273°
orbit number at epoch: 34347

The dashed part of the orbit path shows where the satellite is in the earth's shadow,  

DLR